Tracking 23885 objects as of 28-Nov-2021
HD Live streaming from Space Station
objects crossing your sky now

SPACEBEE-60

Track SPACEBEE-60 now!
10-day predictions


NORAD ID: 47433
Int'l Code: 2021-006W
Perigee: 529.9 km
Apogee: 535.8 km
Inclination: 97.5 °
Period: 95.1 minutes
Semi major axis: 6903 km
RCS: Unknown
Launch date: January 24, 2021
Source: United States (US)
Launch site: AIR FORCE EASTERN TEST RANGE (AFETR)
aabbcc
Your satellite tracking list
Your tracking list is empty




NASA's NSSDC Master Catalog

Two Line Element Set (TLE):
1 47433U 21006W   21331.56769077  .00005194  00000-0  29426-3 0  9992
2 47433  97.4781  29.6313 0004286 262.5541  97.5203 15.13433871 47652
Source of the keplerian elements: AFSPC